KLM32P EGCC-EHAM

Flight info

Callsign KLM32P
Flight time 0h 47m
Altitude 35000
Route SONEX L975 DESIG L603 LAMSO
Aircraft B738/M-SDE2E3FGHIRWXY/LB1

Departure

Time 2026-05-01 14:02
Airport Manchester Airport (EGCC)

Arrival

Time 2026-05-01 14:49
Airport Amsterdam Airport Schiphol (EHAM)
Time Latitude Longitude Altitude Speed Heading
2026-05-01 13:10 53.36792 -2.28681 254 ft 0 kts 315°
2026-05-01 13:45 53.36782 -2.28664 254 ft 4 kts 315°
2026-05-01 13:45 53.36766 -2.28638 254 ft 4 kts 308°
2026-05-01 13:46 53.36764 -2.28612 254 ft 4 kts 228°
2026-05-01 13:46 53.36768 -2.28604 254 ft 3 kts 224°
2026-05-01 13:46 53.36749 -2.28636 254 ft 4 kts 224°
2026-05-01 13:46 53.36730 -2.28667 254 ft 4 kts 224°
2026-05-01 13:47 53.36710 -2.28699 254 ft 4 kts 224°
2026-05-01 13:47 53.36701 -2.28714 254 ft 0 kts 224°
2026-05-01 13:51 53.36698 -2.28720 254 ft 2 kts 225°
2026-05-01 13:51 53.36675 -2.28751 254 ft 6 kts 207°
2026-05-01 13:51 53.36627 -2.28778 254 ft 9 kts 204°
2026-05-01 13:51 53.36569 -2.28741 254 ft 11 kts 133°
2026-05-01 13:52 53.36508 -2.28635 254 ft 13 kts 135°
2026-05-01 13:52 53.36445 -2.28528 254 ft 13 kts 135°
2026-05-01 13:52 53.36396 -2.28383 254 ft 16 kts 114°
2026-05-01 13:52 53.36325 -2.28250 254 ft 15 kts 135°
2026-05-01 13:53 53.36251 -2.28129 254 ft 14 kts 135°
2026-05-01 13:53 53.36106 -2.27906 254 ft 15 kts 141°
2026-05-01 13:53 53.36019 -2.27793 254 ft 16 kts 142°
2026-05-01 13:54 53.35927 -2.27722 254 ft 15 kts 181°
2026-05-01 13:54 53.35822 -2.27728 251 ft 16 kts 168°
2026-05-01 13:54 53.35729 -2.27638 248 ft 16 kts 157°
2026-05-01 13:54 53.35646 -2.27558 245 ft 9 kts 141°
2026-05-01 13:55 53.35597 -2.27491 244 ft 9 kts 141°
2026-05-01 13:55 53.35576 -2.27462 244 ft 0 kts 141°
2026-05-01 13:56 53.35574 -2.27460 244 ft 3 kts 141°
2026-05-01 13:56 53.35516 -2.27382 247 ft 16 kts 141°
2026-05-01 13:56 53.35423 -2.27257 246 ft 18 kts 141°
2026-05-01 13:57 53.35305 -2.27198 241 ft 18 kts 191°
2026-05-01 13:57 53.35225 -2.27224 235 ft 7 kts 191°
2026-05-01 13:57 53.35201 -2.27233 233 ft 0 kts 191°
2026-05-01 13:57 53.35200 -2.27233 233 ft 0 kts 191°
2026-05-01 13:58 53.35181 -2.27239 231 ft 6 kts 191°
2026-05-01 13:58 53.35154 -2.27249 229 ft 0 kts 192°
2026-05-01 13:58 53.35151 -2.27249 229 ft 0 kts 192°
2026-05-01 14:00 53.35138 -2.27254 229 ft 8 kts 192°
2026-05-01 14:00 53.35029 -2.27299 225 ft 21 kts 205°
2026-05-01 14:01 53.34917 -2.27512 222 ft 41 kts 231°
2026-05-01 14:01 53.34587 -2.28192 227 ft 107 kts 231°
2026-05-01 14:01 53.33998 -2.29409 230 ft 160 kts 232°
2026-05-01 14:01 53.33254 -2.30978 637 ft 173 kts 233°
2026-05-01 14:02 53.32553 -2.32528 1639 ft 158 kts 234°
2026-05-01 14:02 53.31967 -2.34182 2112 ft 181 kts 247°
2026-05-01 14:02 53.31735 -2.36395 2367 ft 207 kts 272°
2026-05-01 14:02 53.32189 -2.38822 2509 ft 236 kts 302°
2026-05-01 14:03 53.33467 -2.40719 2849 ft 260 kts 334°
2026-05-01 14:03 53.35251 -2.41574 3400 ft 272 kts 346°
2026-05-01 14:03 53.37093 -2.42354 4137 ft 276 kts 343°
2026-05-01 14:03 53.38965 -2.43258 4767 ft 283 kts 341°
2026-05-01 14:04 53.40856 -2.44227 5216 ft 285 kts 341°
2026-05-01 14:04 53.42760 -2.45232 5884 ft 290 kts 342°
2026-05-01 14:04 53.44777 -2.45497 6557 ft 297 kts 13°
2026-05-01 14:04 53.46041 -2.44628 7025 ft 297 kts 37°
2026-05-01 14:05 53.47593 -2.41011 8015 ft 286 kts 81°
2026-05-01 14:05 53.47826 -2.37728 8803 ft 284 kts 90°
2026-05-01 14:05 53.48018 -2.34408 9561 ft 289 kts 88°
2026-05-01 14:05 53.48303 -2.31086 10320 ft 293 kts 85°
2026-05-01 14:06 53.48665 -2.27572 10661 ft 314 kts 84°
2026-05-01 14:06 53.49079 -2.23823 10842 ft 338 kts 83°
2026-05-01 14:06 53.49522 -2.19805 11014 ft 361 kts 84°
2026-05-01 14:06 53.49973 -2.15547 11369 ft 378 kts 84°
2026-05-01 14:07 53.50433 -2.11148 12005 ft 385 kts 84°
2026-05-01 14:07 53.50898 -2.06707 12778 ft 388 kts 83°
2026-05-01 14:07 53.51365 -2.02230 13505 ft 391 kts 84°
2026-05-01 14:08 53.52275 -1.93162 14829 ft 399 kts 88°
2026-05-01 14:08 53.52318 -1.88515 15466 ft 398 kts 99°
2026-05-01 14:08 53.51860 -1.83950 16131 ft 396 kts 109°
2026-05-01 14:08 53.51071 -1.79513 16786 ft 398 kts 111°
2026-05-01 14:09 53.50251 -1.75053 17400 ft 402 kts 111°
2026-05-01 14:09 53.49431 -1.70538 18018 ft 406 kts 110°
2026-05-01 14:09 53.48621 -1.65973 18594 ft 410 kts 110°
2026-05-01 14:09 53.47809 -1.61355 19102 ft 414 kts 110°
2026-05-01 14:10 53.46990 -1.56705 19624 ft 417 kts 110°
2026-05-01 14:10 53.46150 -1.52017 20103 ft 421 kts 111°
2026-05-01 14:10 53.45295 -1.47285 20632 ft 424 kts 111°
2026-05-01 14:10 53.44437 -1.42548 21129 ft 427 kts 111°
2026-05-01 14:11 53.43571 -1.37765 21640 ft 430 kts 111°
2026-05-01 14:11 53.41812 -1.28078 22552 ft 437 kts 111°
2026-05-01 14:11 53.40940 -1.23177 23004 ft 441 kts 110°
2026-05-01 14:12 53.40075 -1.18228 23452 ft 444 kts 111°
2026-05-01 14:12 53.39178 -1.13270 23852 ft 447 kts 111°
2026-05-01 14:12 53.38258 -1.08285 24208 ft 449 kts 111°
2026-05-01 14:12 53.37326 -1.03270 24577 ft 452 kts 111°
2026-05-01 14:13 53.36404 -0.98303 24982 ft 452 kts 112°
2026-05-01 14:13 53.35775 -0.94911 25280 ft 452 kts 112°
2026-05-01 14:13 53.34523 -0.88165 25740 ft 456 kts 112°
2026-05-01 14:13 53.33590 -0.83147 26040 ft 459 kts 112°
2026-05-01 14:14 53.32637 -0.78027 26360 ft 461 kts 112°
2026-05-01 14:14 53.31678 -0.72892 26673 ft 464 kts 112°
2026-05-01 14:14 53.30713 -0.67744 26989 ft 466 kts 112°
2026-05-01 14:14 53.29739 -0.62569 27299 ft 468 kts 112°
2026-05-01 14:15 53.28756 -0.57364 27601 ft 470 kts 112°
2026-05-01 14:15 53.27768 -0.52138 27900 ft 472 kts 112°
2026-05-01 14:15 53.26778 -0.46916 28289 ft 471 kts 112°
2026-05-01 14:15 53.25791 -0.41714 28750 ft 470 kts 112°
2026-05-01 14:16 53.24811 -0.36526 29180 ft 468 kts 111°
2026-05-01 14:16 53.23829 -0.31339 29555 ft 469 kts 111°
2026-05-01 14:16 53.22840 -0.26146 29935 ft 469 kts 111°
2026-05-01 14:16 53.21844 -0.20974 30336 ft 468 kts 112°
2026-05-01 14:17 53.20846 -0.15812 30723 ft 466 kts 112°
2026-05-01 14:17 53.19852 -0.10678 31086 ft 465 kts 112°
2026-05-01 14:17 53.18857 -0.05553 31438 ft 465 kts 112°
2026-05-01 14:17 53.17859 -0.00417 31785 ft 464 kts 112°
2026-05-01 14:18 53.16871 0.04673 32273 ft 459 kts 112°
2026-05-01 14:18 53.15895 0.09705 32746 ft 455 kts 112°
2026-05-01 14:18 53.14916 0.14734 33062 ft 456 kts 112°
2026-05-01 14:18 53.14267 0.18056 33236 ft 456 kts 112°
2026-05-01 14:19 53.12951 0.24777 33646 ft 456 kts 112°
2026-05-01 14:19 53.11969 0.29781 34013 ft 454 kts 112°
2026-05-01 14:19 53.10986 0.34777 34335 ft 453 kts 112°
2026-05-01 14:19 53.10002 0.39762 34573 ft 454 kts 112°
2026-05-01 14:20 53.09028 0.44688 34789 ft 454 kts 112°
2026-05-01 14:20 53.07037 0.54715 35137 ft 451 kts 112°
2026-05-01 14:21 53.05073 0.64563 35149 ft 450 kts 112°
2026-05-01 14:21 53.03097 0.74406 35146 ft 454 kts 113°
2026-05-01 14:22 53.00081 0.89360 35155 ft 456 kts 113°
2026-05-01 14:22 52.98061 0.99342 35154 ft 456 kts 112°
2026-05-01 14:23 52.96642 1.09653 35155 ft 460 kts 104°
2026-05-01 14:23 52.95514 1.20083 35159 ft 460 kts 104°
2026-05-01 14:24 52.94358 1.30504 35168 ft 459 kts 105°
2026-05-01 14:24 52.93151 1.40877 35168 ft 458 kts 105°
2026-05-01 14:25 52.91922 1.51218 35180 ft 457 kts 105°
2026-05-01 14:25 52.90682 1.61551 35174 ft 457 kts 105°
2026-05-01 14:26 52.88807 1.77057 35187 ft 457 kts 105°
2026-05-01 14:27 52.87549 1.87360 35193 ft 457 kts 105°
2026-05-01 14:27 52.86281 1.97677 35193 ft 457 kts 105°
2026-05-01 14:28 52.84361 2.13143 35188 ft 458 kts 105°
2026-05-01 14:28 52.83709 2.18345 34609 ft 465 kts 105°
2026-05-01 14:28 52.83054 2.23562 33938 ft 462 kts 105°
2026-05-01 14:29 52.82400 2.28758 33165 ft 462 kts 105°
2026-05-01 14:29 52.81745 2.33948 32408 ft 461 kts 105°
2026-05-01 14:30 52.79768 2.49472 29986 ft 463 kts 106°
2026-05-01 14:30 52.79316 2.52989 29292 ft 464 kts 105°
2026-05-01 14:30 52.78423 2.59887 28067 ft 463 kts 105°
2026-05-01 14:31 52.77290 2.68605 26414 ft 464 kts 105°
2026-05-01 14:31 52.76612 2.73807 25662 ft 461 kts 105°
2026-05-01 14:31 52.75939 2.78952 24950 ft 455 kts 105°
2026-05-01 14:31 52.75278 2.84032 24271 ft 451 kts 105°
2026-05-01 14:32 52.74632 2.89071 23532 ft 446 kts 105°
2026-05-01 14:32 52.73992 2.94056 22758 ft 442 kts 105°
2026-05-01 14:32 52.73319 2.98957 22027 ft 434 kts 110°
2026-05-01 14:32 52.72061 3.03388 21344 ft 421 kts 124°
2026-05-01 14:33 52.70535 3.07481 20664 ft 417 kts 124°
2026-05-01 14:33 52.69073 3.11515 19989 ft 413 kts 123°
2026-05-01 14:33 52.67628 3.15580 19318 ft 410 kts 123°
2026-05-01 14:33 52.66203 3.19623 18639 ft 407 kts 123°
2026-05-01 14:34 52.64787 3.23651 17881 ft 404 kts 123°
2026-05-01 14:34 52.63386 3.27636 17165 ft 400 kts 123°
2026-05-01 14:34 52.61997 3.31578 16484 ft 396 kts 123°
2026-05-01 14:34 52.60616 3.35484 15814 ft 392 kts 123°
2026-05-01 14:35 52.59251 3.39342 15157 ft 389 kts 123°
2026-05-01 14:35 52.58181 3.43427 14419 ft 394 kts 107°
2026-05-01 14:35 52.57735 3.47893 13602 ft 397 kts 102°
2026-05-01 14:35 52.57314 3.52350 12887 ft 392 kts 103°
2026-05-01 14:36 52.56875 3.56733 12331 ft 384 kts 103°
2026-05-01 14:36 52.56428 3.61026 11733 ft 379 kts 103°
2026-05-01 14:36 52.55979 3.65256 11402 ft 368 kts 103°
2026-05-01 14:36 52.55713 3.69357 11231 ft 356 kts 95°
2026-05-01 14:37 52.55722 3.73352 11095 ft 344 kts 92°
2026-05-01 14:37 52.55783 3.77221 10933 ft 333 kts 92°
2026-05-01 14:37 52.55855 3.80914 10791 ft 313 kts 92°
2026-05-01 14:37 52.55935 3.84385 10654 ft 296 kts 92°
2026-05-01 14:38 52.56019 3.87717 10260 ft 291 kts 92°
2026-05-01 14:38 52.56099 3.91065 9853 ft 293 kts 92°
2026-05-01 14:38 52.56073 3.94385 9555 ft 288 kts 96°
2026-05-01 14:38 52.55986 3.97666 9232 ft 287 kts 97°
2026-05-01 14:39 52.55886 4.00929 8892 ft 286 kts 97°
2026-05-01 14:39 52.55783 4.04180 8573 ft 284 kts 97°
2026-05-01 14:39 52.55675 4.07423 8257 ft 283 kts 97°
2026-05-01 14:39 52.55565 4.10649 7928 ft 282 kts 97°
2026-05-01 14:40 52.55454 4.13868 7611 ft 282 kts 97°
2026-05-01 14:40 52.55341 4.17067 7302 ft 281 kts 97°
2026-05-01 14:40 52.55227 4.20260 6999 ft 280 kts 97°
2026-05-01 14:40 52.55111 4.23451 6695 ft 279 kts 97°
2026-05-01 14:41 52.54993 4.26622 6378 ft 278 kts 97°
2026-05-01 14:41 52.54877 4.29777 6093 ft 275 kts 97°
2026-05-01 14:41 52.54764 4.32889 5757 ft 270 kts 97°
2026-05-01 14:41 52.54657 4.35972 5261 ft 272 kts 97°
2026-05-01 14:42 52.54551 4.39072 4980 ft 270 kts 97°
2026-05-01 14:42 52.54452 4.42109 4638 ft 264 kts 97°
2026-05-01 14:42 52.54352 4.45082 4205 ft 263 kts 97°
2026-05-01 14:42 52.54243 4.48118 3878 ft 262 kts 97°
2026-05-01 14:43 52.54131 4.51039 3651 ft 258 kts 97°
2026-05-01 14:43 52.54014 4.53958 3384 ft 256 kts 97°
2026-05-01 14:43 52.53892 4.56899 3125 ft 252 kts 97°
2026-05-01 14:43 52.53770 4.59737 2894 ft 247 kts 97°
2026-05-01 14:44 52.53652 4.62480 2780 ft 241 kts 97°
2026-05-01 14:44 52.53363 4.67772 2498 ft 224 kts 109°
2026-05-01 14:44 52.52564 4.69860 2335 ft 214 kts 142°
2026-05-01 14:45 52.51334 4.71143 2249 ft 207 kts 151°
2026-05-01 14:45 52.48701 4.72271 2023 ft 190 kts 183°
2026-05-01 14:45 52.47429 4.72179 1993 ft 177 kts 180°
2026-05-01 14:46 52.46204 4.72100 1972 ft 179 kts 181°
2026-05-01 14:46 52.43768 4.71883 1533 ft 165 kts 182°
2026-05-01 14:46 52.42658 4.71780 1302 ft 156 kts 182°
2026-05-01 14:47 52.41599 4.71684 1143 ft 146 kts 182°
2026-05-01 14:47 52.40604 4.71592 919 ft 141 kts 183°
2026-05-01 14:47 52.39627 4.71492 706 ft 142 kts 181°
2026-05-01 14:48 52.37661 4.71332 366 ft 145 kts 180°
2026-05-01 14:48 52.36649 4.71228 176 ft 144 kts 180°
2026-05-01 14:48 52.34793 4.71072 -1 ft 107 kts 183°
2026-05-01 14:49 52.33811 4.70980 -2 ft 51 kts 184°
2026-05-01 14:49 52.33345 4.71027 -3 ft 19 kts 137°
2026-05-01 14:50 52.33234 4.71239 -2 ft 18 kts 130°
2026-05-01 14:50 52.33023 4.71627 -2 ft 16 kts 133°
2026-05-01 14:51 52.32948 4.71762 -2 ft 16 kts 132°
2026-05-01 14:51 52.32836 4.72039 -2 ft 14 kts 87°
2026-05-01 14:52 52.32766 4.72360 -2 ft 19 kts 131°
2026-05-01 14:52 52.32680 4.72517 -2 ft 18 kts 131°
2026-05-01 14:52 52.32497 4.72783 -2 ft 17 kts 139°
2026-05-01 14:53 52.32409 4.72905 -2 ft 16 kts 140°
2026-05-01 14:53 52.32325 4.73025 -2 ft 16 kts 139°
2026-05-01 14:53 52.32238 4.73148 -2 ft 16 kts 139°
2026-05-01 14:53 52.32153 4.73268 -2 ft 16 kts 139°
2026-05-01 14:54 52.32075 4.73389 -2 ft 15 kts 118°
2026-05-01 14:54 52.32053 4.73551 -2 ft 15 kts 93°
2026-05-01 14:54 52.32048 4.73714 -2 ft 14 kts 93°
2026-05-01 14:54 52.32042 4.73871 -2 ft 13 kts 93°
2026-05-01 14:55 52.32037 4.74024 -3 ft 15 kts 94°
2026-05-01 14:55 52.32001 4.74178 -2 ft 15 kts 146°
2026-05-01 14:55 52.31901 4.74189 -2 ft 14 kts 183°
2026-05-01 14:55 52.31796 4.74179 -2 ft 17 kts 183°
2026-05-01 14:56 52.31663 4.74167 -2 ft 22 kts 183°
2026-05-01 14:56 52.31507 4.74149 -2 ft 22 kts 183°
2026-05-01 14:56 52.31392 4.74180 -2 ft 12 kts 123°
2026-05-01 14:56 52.31389 4.74323 -2 ft 14 kts 87°
2026-05-01 14:57 52.31397 4.74545 -2 ft 25 kts 87°
2026-05-01 14:57 52.31414 4.75106 -2 ft 23 kts 87°
2026-05-01 14:57 52.31423 4.75362 -2 ft 22 kts 85°
2026-05-01 14:58 52.31432 4.75610 -2 ft 21 kts 86°
2026-05-01 14:58 52.31440 4.75849 -2 ft 21 kts 86°
2026-05-01 14:58 52.31450 4.76079 -2 ft 20 kts 87°
2026-05-01 14:58 52.31457 4.76301 -2 ft 19 kts 87°
2026-05-01 14:59 52.31464 4.76521 -2 ft 20 kts 87°
2026-05-01 14:59 52.31473 4.76760 -2 ft 22 kts 87°
2026-05-01 14:59 52.31482 4.77004 -2 ft 21 kts 86°
2026-05-01 14:59 52.31446 4.77222 -2 ft 20 kts 130°
2026-05-01 15:00 52.31241 4.77508 -2 ft 20 kts 178°
2026-05-01 15:00 52.31107 4.77493 -2 ft 19 kts 183°
2026-05-01 15:00 52.30979 4.77482 -2 ft 18 kts 182°
2026-05-01 15:01 52.30859 4.77455 -2 ft 17 kts 220°
2026-05-01 15:01 52.30844 4.77272 -2 ft 15 kts 290°
2026-05-01 15:01 52.30892 4.77238 -2 ft 4 kts